Home > Weather > Waco > Past weeks

Flag for USA Weather for the Past 2 Weeks in Waco, Texas, USA

Now
66 °F

Clear.


Feels Like: 66 °F
Forecast: 59 / 76 °F
Wind: 8 mph from North

Location: Waco Regional Airport

Current Time: Apr 30, 2016 at 11:29:18 PM

Latest Report: Apr 30, 2016 at 10:51 PM


Visibility: 10 mi

Pressure: 29.84 "Hg

Humidity: 87%

Dew Point: 62 °F

Location of WacoLocation

Historic Weather in Waco — Graph

°F

Waco Temperature Yesterday

Maximum temperature yesterday: 82 °F (at 4:54 PM)
Minimum temperature yesterday: 69 °F (at 10:51 PM)
Average temperature yesterday: 76 °F

High & Low Weather Summary for the Past Weeks

 TemperatureHumidityPressure
High85 °F (Apr 25, 2:51 PM)97% (Apr 19, 4:51 AM)30.15 "Hg (Apr 19, 4:51 AM)
Low52 °F (Apr 22, 6:51 AM)24% (Apr 27, 12:51 PM)29.50 "Hg (Apr 29, 6:51 PM)
Average70 °F76%29.87 "Hg
* Reported Apr 15 8:51 PM — Apr 30 8:51 PM, Waco, Weather by CustomWeather, © 2016

Note: Actual official high and low records may vary slightly from our data, if they occured in-between our weather recording intervals... More about our weather records

Advertising

Waco Weather History for the Previous 24 Hours

Scroll right to see more
 ConditionsComfort  
Time TempWeatherWind HumidityBarometerVisibility
8:51 PM
Sat, Apr 30
69 °FSunny.5 mph84%29.79 "Hg10 mi
7:51 PM73 °FSunny.6 mph76%29.76 "Hg10 mi
6:51 PM79 °FScattered clouds.6 mph60%29.73 "Hg10 mi
5:51 PM80 °FSunny.3 mph54%29.71 "Hg10 mi
4:51 PM81 °FSunny.No wind54%29.70 "Hg9 mi
3:51 PM77 °FSunny.No wind60%29.73 "Hg9 mi
2:51 PM76 °FPassing clouds.6 mph62%29.75 "Hg10 mi
1:51 PM74 °FPassing clouds.6 mph67%29.76 "Hg10 mi
12:51 PM71 °FPartly sunny.9 mph71%29.78 "Hg10 mi
11:51 AM69 °FPartly sunny.13 mph73%29.78 "Hg10 mi
10:51 AM65 °FOvercast.12 mph81%29.79 "Hg10 mi
9:51 AM65 °FOvercast.10 mph85%29.78 "Hg10 mi
8:51 AM64 °FMostly cloudy.12 mph87%29.74 "Hg10 mi
7:51 AM63 °FOvercast.14 mph90%29.70 "Hg9 mi
6:58 AM63 °FOvercast.9 mph87%29.73 "Hg10 mi
5:51 AM64 °FPassing clouds.5 mph84%29.66 "Hg10 mi
4:51 AM64 °FClear.12 mph87%29.66 "Hg10 mi
3:51 AM66 °FClear.9 mph90%29.62 "Hg10 mi
2:51 AM65 °FClear.No wind94%29.62 "Hg8 mi
1:51 AM67 °FClear.7 mph90%29.62 "Hg10 mi
12:51 AM68 °FClear.10 mph93%29.58 "Hg9 mi
11:51 PM
Fri, Apr 29
69 °FLight rain. Partly cloudy.3 mph90%29.56 "Hg10 mi
Weather by CustomWeather, © 2016

See weather overviewHow to use our weather pages